Gunnison, CO

11:12 PM MDT on October 15, 2019 (GMT -0600)
Gunnison County

Weather History for KGUC - September, 2019

Change the Weather History Date:

Tuesday, September 17, 2019

  Actual Average Record
Temperature  
Mean Temperature 56 °F -  
Max Temperature 71 °F 65 °F 80 °F (2018)
Min Temperature 41 °F 33 °F 19 °F (2006)
Degree Days  
Heating Degree Days 9    
Growing Degree Days 6 (Base 50)    
Moisture  
Dew Point 39 °F    
Average Humidity 58    
Maximum Humidity 89    
Minimum Humidity 27    
Precipitation  
Precipitation 0.01 in - - ()
Sea Level Pressure  
Sea Level Pressure 30.04 in    
Wind  
Wind Speed 4 mph ()    
Max Wind Speed 21 mph    
Max Gust Speed 26 mph    
Visibility 9.9 miles    
Events Rain    
Averages and records for this station are not official NWS values.
T = Trace of Precipitation, MM = Missing Value Source: Averaged Metar Reports

Daily Weather History Graph

Daily Weather History Graph

Search for Another Location

Airport or City:

Astronomy

Sep. 17, 2019 Rise Set
Actual Time 6:50 AM MDT 7:12 PM MDT
Civil Twilight 6:24 AM MDT 7:39 PM MDT
Nautical Twilight 5:53 AM MDT 8:10 PM MDT
Astronomical Twilight 5:21 AM MDT 8:42 PM MDT
Moon 9:19 PM MDT (9/17) 9:56 AM MDT (9/17)
Length of Visible Light 13h 15m
Length of Day
12h 22m
Waning Gibbous, 89% of the Moon is Illuminated
Sep 17
Waning Gibbous
Sep 21
Last Quarter
Sep 28
New
Oct 5
First Quarter
Oct 13
Full

Hourly Weather History & Observations

Time (MDT) Temp. Windchill Dew Point Humidity Pressure Visibility Wind Dir Wind Speed Gust Speed Precip Events Conditions
1:56 AM 48.0 °F - 37.9 °F 68% 30.04 in 10.0 mi NNE 3.5 mph - N/A   Clear
2:56 AM 45.0 °F - 39.0 °F 80% 30.02 in 10.0 mi Calm Calm - N/A   Clear
3:56 AM 43.0 °F - 37.9 °F 82% 30.03 in 10.0 mi Calm Calm - N/A   Clear
4:56 AM 42.1 °F 40.2 °F 36.0 °F 79% 30.03 in 10.0 mi North 3.5 mph - N/A   Clear
5:56 AM 41.0 °F - 37.0 °F 86% 30.07 in 10.0 mi Calm Calm - N/A   Mostly Cloudy
6:56 AM 42.1 °F - 39.0 °F 89% 30.11 in 9.0 mi Calm Calm - 0.00 in Rain Light Rain
7:56 AM 43.0 °F - 39.9 °F 89% 30.12 in 10.0 mi Calm Calm - 0.00 in Rain Light Rain
8:56 AM 46.0 °F - 39.9 °F 79% 30.13 in 10.0 mi Calm Calm - 0.00 in   Overcast
9:56 AM 51.1 °F - 42.1 °F 71% 30.11 in 10.0 mi NNE 5.8 mph - 0.00 in   Scattered Clouds
10:56 AM 57.0 °F - 43.0 °F 59% 30.07 in 10.0 mi NNE 6.9 mph - N/A   Scattered Clouds
11:56 AM 61.0 °F - 41.0 °F 48% 30.05 in 10.0 mi WSW 4.6 mph - N/A   Overcast
12:56 PM 63.0 °F - 44.1 °F 50% 30.04 in 10.0 mi Calm Calm - 0.00 in   Scattered Clouds
1:56 PM 68.0 °F - 39.9 °F 36% 29.98 in 10.0 mi WSW 11.5 mph 24.2 mph 0.01 in   Mostly Cloudy
2:56 PM 68.0 °F - 37.9 °F 33% 29.98 in 10.0 mi WSW 18.4 mph 25.3 mph N/A   Scattered Clouds
3:56 PM 71.1 °F - 37.9 °F 30% 29.96 in 10.0 mi SW 16.1 mph 24.2 mph N/A   Partly Cloudy
4:56 PM 71.1 °F - 35.1 °F 27% 29.96 in 10.0 mi West 20.7 mph 26.5 mph N/A   Scattered Clouds
5:56 PM 69.1 °F - 36.0 °F 30% 29.98 in 10.0 mi West 13.8 mph - N/A   Partly Cloudy
6:56 PM 64.0 °F - 37.9 °F 38% 30.01 in 10.0 mi WSW 9.2 mph - N/A   Partly Cloudy
7:56 PM 63.0 °F - 37.0 °F 38% 30.03 in 10.0 mi WSW 3.5 mph - N/A   Mostly Cloudy
8:56 PM 60.1 °F - 36.0 °F 41% 30.04 in 10.0 mi North 4.6 mph - N/A   Mostly Cloudy
9:56 PM 55.9 °F - 39.0 °F 53% 30.05 in 8.0 mi Variable 3.5 mph - N/A   Mostly Cloudy
10:56 PM 53.1 °F - 41.0 °F 64% 30.05 in 10.0 mi North 4.6 mph - N/A   Clear
11:56 PM 48.9 °F - 37.9 °F 66% 30.06 in 10.0 mi Calm Calm - N/A   Partly Cloudy